Date,TemperatureHighF,TemperatureAvgF,TemperatureLowF,DewpointHighF,DewpointAvgF,DewpointLowF,HumidityHigh,HumidityAvg,HumidityLow,PressureMaxIn,PressureMinIn,WindSpeedMaxMPH,WindSpeedAvgMPH,GustSpeedMaxMPH,PrecipitationSumIn
2013-1-1,31.6,23.3,8.1,26.7,11.7,-0.3,86,62,46,29.95,29.69,9,1,14,0.00
2013-1-2,22.2,10.9,-0.2,11.8,1.0,-11.8,79,64,48,30.21,29.90,5,1,14,0.00
2013-1-3,11.2,2.7,-6.5,0.2,-8.0,-13.8,75,61,44,30.24,29.99,4,0,7,0.00
2013-1-4,33.7,22.9,3.9,22.6,13.5,-2.1,79,68,58,29.99,29.80,6,1,15,0.01
2013-1-5,33.8,29.4,18.9,25.5,17.1,11.9,82,61,42,30.25,29.81,7,1,14,0.01
2013-1-6,34.4,26.9,18.1,27.8,20.7,11.7,83,77,68,30.20,29.91,2,0,5,0.00
2013-1-7,33.8,26.6,14.1,28.3,16.5,7.6,84,66,45,30.38,29.95,7,1,12,0.00
2013-1-8,37.3,22.6,8.4,24.1,14.6,4.0,84,72,54,30.38,30.24,2,0,5,0.00
2013-1-9,42.6,26.2,15.1,28.4,20.1,11.4,87,78,51,30.41,29.97,7,0,12,0.00
2013-1-10,41.2,36.6,27.6,31.6,22.9,19.8,81,58,44,30.56,30.01,9,2,24,0.01
2013-1-11,35.0,29.2,22.2,31.3,24.0,18.1,94,81,60,30.55,30.18,2,0,4,0.19
2013-1-12,38.3,35.4,32.7,37.3,34.3,31.0,97,96,94,30.20,30.12,2,0,4,0.01
2013-1-13,41.5,37.9,34.7,41.0,37.4,33.9,99,98,97,30.14,29.96,3,0,7,0.01
2013-1-14,49.8,40.9,32.7,47.4,34.6,22.8,100,81,41,30.27,29.84,6,1,13,0.01
2013-1-15,36.2,30.8,27.2,25.8,22.4,19.0,86,72,52,30.35,30.23,3,0,6,0.00
2013-1-16,30.3,29.0,27.9,28.1,26.1,22.7,93,89,79,30.24,29.80,1,0,2,0.01
2013-1-17,35.9,28.1,21.3,30.7,19.4,2.7,93,72,45,30.14,29.81,8,1,20,0.06
2013-1-18,19.7,15.0,5.4,3.9,-2.9,-9.3,63,46,28,30.40,30.31,6,1,16,0.06
2013-1-19,37.8,29.6,17.2,24.9,16.7,3.9,67,58,49,30.31,29.81,4,1,9,0.05
2013-1-20,43.2,32.7,20.2,32.6,17.9,-1.7,80,56,29,29.95,29.51,11,2,28,0.07
2013-1-21,24.7,19.5,14.3,16.2,3.8,-5.4,85,52,35,30.07,29.78,6,1,15,0.00
2013-1-22,19.2,14.3,6.3,14.8,5.1,-4.0,85,68,39,30.07,29.76,6,1,13,0.00
2013-1-23,7.7,2.6,-6.3,-3.8,-16.7,-21.9,67,41,26,30.17,30.05,8,1,15,0.00
2013-1-24,12.4,0.7,-13.3,-11.3,-15.8,-20.8,71,48,26,30.29,30.13,8,1,20,0.00
2013-1-25,15.9,7.8,-0.8,3.1,-9.7,-15.1,71,45,27,30.36,30.09,5,0,12,0.00
2013-1-26,18.6,11.0,4.8,3.8,-4.0,-14.1,77,54,25,30.27,30.06,6,1,16,0.00
2013-1-27,25.4,13.1,1.5,1.6,-3.0,-9.8,79,52,21,30.50,30.27,4,0,10,0.00
2013-1-28,17.8,12.4,5.2,14.1,5.5,-3.7,85,74,52,30.48,30.03,1,0,2,0.00
2013-1-29,31.5,25.2,17.8,29.7,21.2,14.1,93,85,76,30.21,30.05,2,0,4,0.02
2013-1-30,47.4,38.1,31.5,47.4,37.3,29.7,100,97,93,30.09,29.35,3,0,8,0.54
2013-1-31,56.2,39.9,27.0,56.2,28.0,5.0,100,66,37,29.53,28.85,12,3,29,0.77
2013-2-1,27.2,22.1,15.9,18.2,7.5,0.5,82,54,41,30.09,29.53,8,2,23,0.00
2013-2-2,23.5,18.0,10.5,14.3,5.2,-0.9,80,58,43,30.22,30.03,4,1,9,0.00
2013-2-3,27.0,20.6,13.3,14.3,11.1,9.2,85,67,48,30.04,29.74,4,0,7,0.00
2013-2-4,25.4,20.5,14.8,12.1,3.2,-5.3,74,49,29,29.92,29.73,9,2,20,0.00
2013-2-5,26.1,17.9,6.1,10.7,2.2,-2.7,72,51,33,30.04,29.90,4,0,7,0.00
2013-2-6,32.1,25.3,15.9,21.2,11.6,-5.9,85,58,33,30.33,29.90,7,1,13,0.00
2013-2-7,23.9,16.8,8.8,0.6,-4.2,-7.4,51,39,29,30.56,30.33,4,1,9,0.00
2013-2-8,21.6,19.5,17.5,15.4,9.3,-6.5,87,67,29,30.46,29.84,7,1,15,0.00
2013-2-9,18.8,14.8,9.0,15.6,6.3,-2.9,87,69,48,30.32,29.82,10,3,21,0.00
2013-2-10,28.5,13.6,-3.3,9.4,0.1,-9.5,75,57,29,30.51,30.32,3,0,5,0.04
2013-2-11,30.4,24.3,11.7,28.9,20.2,3.8,94,84,67,30.34,29.63,2,0,5,0.00
2013-2-12,40.1,35.4,30.0,31.2,27.0,23.9,95,73,57,29.85,29.62,6,1,17,0.18
2013-2-13,37.9,32.3,26.6,24.1,20.3,16.7,77,62,42,29.85,29.75,6,0,10,0.06
2013-2-14,38.3,29.8,23.8,21.6,19.6,17.3,81,67,45,29.97,29.72,4,0,7,0.01
2013-2-15,46.7,33.6,24.2,28.4,22.4,18.6,82,65,38,29.95,29.88,6,1,12,0.02
2013-2-16,34.3,29.5,21.6,26.9,17.1,0.4,90,62,38,29.98,29.82,6,1,13,0.00
2013-2-17,21.6,17.0,11.9,3.0,-0.8,-4.3,56,45,37,29.82,29.55,11,4,22,0.00
2013-2-18,26.1,17.1,8.3,1.6,-4.4,-8.5,53,39,22,30.14,29.78,7,2,16,0.00
2013-2-19,39.2,25.6,9.9,34.4,14.1,-1.3,94,63,35,30.17,29.56,3,0,5,0.19
2013-2-20,34.6,28.0,22.2,33.1,18.0,11.9,95,67,48,29.77,29.55,8,2,16,0.01
2013-2-21,25.7,22.2,17.3,16.5,9.6,2.4,76,58,43,30.31,29.77,9,2,18,0.00
2013-2-22,37.0,30.4,23.0,21.9,17.9,16.0,78,60,44,30.42,30.29,5,1,10,0.00
2013-2-23,33.7,32.3,30.9,29.8,23.5,18.6,89,70,59,30.29,30.05,5,1,7,0.00
2013-2-24,35.2,32.6,30.7,33.6,31.0,28.9,95,94,92,29.93,29.76,3,0,6,0.26
2013-2-25,35.9,31.9,29.0,32.7,30.1,27.5,96,93,85,30.24,29.92,2,0,5,0.08
2013-2-26,38.9,33.5,28.5,34.6,29.2,26.0,97,85,67,30.34,30.16,3,0,5,0.01
2013-2-27,36.0,33.6,31.5,33.6,30.0,25.6,92,87,71,30.16,29.64,7,1,14,0.37
2013-2-28,39.9,34.4,29.8,34.9,31.6,28.3,95,90,78,29.64,29.56,2,0,5,0.03
2013-3-1,39.5,34.6,31.5,32.5,26.6,22.6,95,74,53,29.72,29.56,7,2,16,0.01
2013-3-2,36.6,32.4,27.3,25.4,23.3,20.3,83,69,55,29.72,29.67,8,2,15,0.00
2013-3-3,32.9,28.4,25.3,24.2,21.3,18.9,82,74,67,29.70,29.64,5,1,10,0.02
2013-3-4,34.9,29.1,25.4,23.7,19.4,16.5,79,67,53,29.84,29.65,6,1,13,0.00
2013-3-5,41.8,33.2,27.3,27.2,22.8,19.0,82,66,50,30.09,29.84,6,1,12,0.00
2013-3-6,36.9,34.3,31.9,30.8,26.3,20.8,89,73,58,30.20,30.07,8,2,20,0.02
2013-3-7,38.2,33.1,29.8,27.4,23.8,20.4,89,69,54,30.17,30.09,7,2,18,0.00
2013-3-8,39.9,32.9,27.9,27.0,24.0,20.9,91,71,48,30.26,30.06,8,2,17,0.10
2013-3-9,52.0,37.9,27.6,23.0,19.5,12.5,73,51,22,30.35,30.23,6,1,15,0.04
2013-3-10,51.3,37.9,22.5,28.9,23.3,18.6,87,59,30,30.41,30.23,5,1,12,0.00
2013-3-11,44.5,40.3,35.2,37.1,30.9,27.5,80,69,56,30.25,30.08,4,1,9,0.00
2013-3-12,51.7,45.9,41.9,49.0,43.3,35.6,97,91,76,30.08,29.75,5,1,9,0.37
2013-3-13,44.2,38.5,28.4,33.0,25.0,18.8,88,60,37,29.80,29.73,5,1,12,0.16
2013-3-14,32.1,26.8,18.4,25.2,12.9,4.8,81,56,37,29.87,29.72,6,2,14,0.00
2013-3-15,34.1,23.6,16.4,27.7,9.7,-0.5,89,57,27,29.90,29.60,7,1,13,0.00
2013-3-16,32.4,29.4,25.1,20.5,7.4,1.9,67,40,28,29.89,29.70,4,1,12,0.00
2013-3-17,31.2,24.9,18.4,13.5,5.7,-4.8,70,46,23,30.34,29.89,9,2,21,0.00
2013-3-18,35.0,24.2,9.7,20.3,1.6,-3.9,73,41,20,30.48,30.20,7,1,10,0.00
2013-3-19,30.7,27.5,25.3,27.3,23.7,19.6,89,86,71,30.20,29.74,3,0,4,0.01
2013-3-20,34.1,27.8,22.1,22.3,19.6,16.1,89,72,53,29.77,29.69,5,1,11,0.16
2013-3-21,36.6,27.9,17.8,16.7,12.7,5.9,83,56,29,29.78,29.61,5,1,10,0.22
2013-3-22,38.0,27.6,17.7,21.1,15.1,12.0,83,61,35,29.75,29.64,6,1,12,0.02
2013-3-23,38.2,31.6,23.2,21.4,17.8,14.9,80,58,41,29.80,29.67,7,2,18,0.00
2013-3-24,36.5,32.8,30.0,21.9,20.7,19.6,68,61,52,29.86,29.78,6,1,12,0.00
2013-3-25,42.2,34.5,25.4,25.8,21.8,19.5,81,61,41,29.81,29.56,6,1,12,0.00
2013-3-26,45.5,37.0,29.0,29.0,22.3,14.7,88,58,30,29.82,29.59,7,1,17,0.01
2013-3-27,50.1,36.0,24.4,31.0,22.4,18.8,84,62,31,29.92,29.79,8,1,14,0.00
2013-3-28,45.2,39.1,34.3,31.8,29.3,27.8,84,69,52,30.05,29.91,2,0,5,0.01
2013-3-29,51.4,40.1,30.4,34.7,29.8,27.0,89,69,41,30.08,30.01,5,1,14,0.00
2013-3-30,52.5,40.1,27.2,31.0,21.3,9.9,93,55,20,30.11,30.03,7,1,16,0.00
2013-3-31,54.8,40.0,24.2,38.1,23.3,18.1,92,57,24,30.12,29.75,10,2,20,0.19
2013-4-1,52.2,38.8,30.1,42.4,29.9,7.0,97,74,30,29.79,29.50,7,1,15,0.46
2013-4-2,34.6,29.7,25.3,18.7,9.9,4.8,68,44,30,29.92,29.79,9,2,30,0.00
2013-4-3,41.5,32.6,25.6,19.8,7.1,-1.7,73,36,18,30.17,29.91,10,3,22,0.00
2013-4-4,51.7,39.2,27.6,21.3,12.8,4.5,56,36,18,30.29,29.96,5,1,12,0.00
2013-4-5,53.6,42.0,33.5,28.3,22.7,15.8,75,49,24,29.96,29.69,8,2,20,0.00
2013-4-6,40.9,32.9,25.6,18.8,5.1,-2.2,54,33,16,30.32,29.92,11,2,22,0.00
2013-4-7,56.0,40.1,24.8,36.5,20.9,7.5,73,48,27,30.31,29.90,12,2,17,0.00
2013-4-8,58.9,48.5,39.6,37.4,32.5,26.8,88,57,31,30.10,29.93,5,1,14,0.00
2013-4-9,61.5,50.7,43.1,47.3,39.7,29.7,91,68,42,30.03,29.87,6,1,12,0.12
2013-4-10,55.6,47.2,42.2,47.7,43.6,38.4,98,88,68,30.00,29.87,4,0,7,0.72
2013-4-11,43.9,40.0,35.0,42.8,32.6,21.1,96,77,43,30.17,29.88,8,1,13,0.05
2013-4-12,35.6,32.4,30.1,30.7,27.2,19.8,92,82,53,30.18,29.87,7,1,14,0.07
2013-4-13,53.3,39.8,31.8,37.2,32.8,29.1,95,78,41,29.94,29.78,5,0,12,0.48
2013-4-14,47.7,40.8,33.5,38.5,30.9,22.5,96,71,38,30.25,29.92,6,1,13,0.01
2013-4-15,58.4,43.2,27.2,35.4,28.9,21.1,92,61,29,30.39,30.25,5,1,9,0.00
2013-4-16,61.2,50.8,40.8,51.1,40.1,27.9,93,68,49,30.33,30.00,9,2,14,0.07
2013-4-17,60.1,51.4,39.3,51.2,30.5,21.8,95,48,26,30.36,30.03,8,2,20,0.03
2013-4-18,61.8,48.2,30.7,40.5,28.9,24.4,85,51,30,30.44,30.09,10,3,17,0.00
2013-4-19,71.8,61.1,50.5,60.2,53.1,40.5,93,76,56,30.09,29.53,12,4,20,0.27
2013-4-20,54.5,45.5,36.5,51.0,31.1,16.5,94,61,29,30.26,29.63,8,2,15,0.26
2013-4-21,49.4,39.3,31.8,20.5,14.4,8.3,60,38,20,30.70,30.26,8,2,16,0.00
2013-4-22,54.1,40.3,26.7,27.5,19.4,11.2,78,47,24,30.77,30.59,10,2,16,0.00
2013-4-23,40.2,37.1,31.3,35.1,30.8,26.1,84,78,69,30.61,30.19,4,0,9,0.00
2013-4-24,74.6,55.3,38.8,46.7,39.7,34.8,95,62,27,30.19,29.70,6,1,12,0.00
2013-4-25,58.4,50.4,38.6,48.7,28.7,13.8,85,46,19,30.31,29.71,7,2,18,0.01
2013-4-26,58.7,46.0,29.3,34.7,27.8,23.3,85,53,27,30.42,30.31,4,0,7,0.00
2013-4-27,64.7,50.6,34.0,35.9,29.4,16.1,88,50,17,30.45,30.27,5,1,9,0.00
2013-4-28,72.0,54.3,33.5,35.7,30.8,26.1,84,46,19,30.35,30.13,6,1,12,0.00
2013-4-29,68.3,56.9,46.0,39.5,34.6,29.4,63,44,29,30.25,30.15,6,1,12,0.00
2013-4-30,73.3,60.9,51.3,35.0,30.5,23.4,49,33,21,30.32,30.21,6,1,12,0.00
2013-5-1,76.8,60.6,41.6,34.1,27.5,17.3,66,33,12,30.46,30.32,6,1,10,0.00
2013-5-2,81.8,60.1,42.8,43.8,35.4,21.5,77,43,19,30.48,30.28,10,1,20,0.00
2013-5-3,68.6,55.2,39.1,42.9,35.7,25.3,79,50,29,30.55,30.34,5,1,12,0.00
2013-5-4,72.3,58.2,41.8,45.7,36.2,23.9,91,51,17,30.37,30.19,6,1,10,0.00
2013-5-5,74.6,57.1,38.8,36.4,31.4,22.4,77,43,16,30.31,30.15,5,1,8,0.00
2013-5-6,77.0,58.4,39.2,41.9,31.5,10.6,85,44,9,30.26,30.07,5,1,12,0.00
2013-5-7,82.8,63.9,43.3,52.5,41.2,31.7,86,49,18,30.17,30.02,4,0,9,0.00
2013-5-8,73.3,62.8,53.8,60.0,56.2,51.5,98,80,52,30.18,30.02,6,1,12,0.26
2013-5-9,70.3,60.8,55.4,61.2,57.6,50.8,100,90,60,30.02,29.86,4,0,6,0.18
2013-5-10,77.0,60.4,52.5,62.3,56.3,52.5,100,89,45,29.98,29.85,3,0,4,0.01
2013-5-11,65.6,61.6,58.3,63.1,59.2,55.3,100,92,82,29.85,29.65,4,0,7,0.14
2013-5-12,64.0,55.8,45.4,59.9,41.2,19.9,100,62,28,29.80,29.59,7,1,12,0.00
2013-5-13,50.2,44.7,41.1,32.0,27.2,23.6,68,51,38,30.07,29.80,7,1,16,0.00
2013-5-14,54.2,45.4,34.6,34.8,30.0,20.8,91,59,28,30.10,29.99,6,1,12,0.00
2013-5-15,63.4,46.4,30.6,52.0,37.8,26.2,100,77,28,30.07,29.65,4,0,10,0.11
2013-5-16,76.5,59.4,45.5,55.0,43.6,30.6,100,69,21,29.70,29.60,7,1,14,0.00
2013-5-18,64.5,61.0,56.7,43.8,41.8,39.4,62,50,40,30.24,30.21,0,0,2,0.00
2013-5-19,54.2,54.2,54.2,44.2,44.2,44.2,69,69,69,30.25,30.25,0,0,2,0.00
2013-5-21,85.3,65.4,51.4,66.8,58.7,49.0,99,81,43,30.02,29.81,8,1,20,1.09
2013-5-22,65.5,56.2,51.4,62.0,55.5,50.6,100,97,86,29.96,29.84,3,0,6,0.59
2013-5-23,77.6,64.9,55.1,69.6,61.5,53.7,96,89,70,29.87,29.73,4,1,9,0.16
2013-5-24,66.1,55.7,44.5,63.9,52.7,41.1,99,90,74,29.93,29.63,8,1,15,0.33
2013-5-25,44.5,41.6,34.0,43.2,40.0,32.3,96,94,91,29.91,29.83,10,3,18,1.05
2013-5-26,53.1,45.1,35.5,39.2,37.1,34.2,96,75,51,30.11,29.80,7,2,18,0.07
2013-5-27,68.6,53.2,36.8,44.8,36.4,29.4,98,61,27,30.20,30.09,6,1,13,0.00
2013-5-28,74.0,57.4,38.3,47.7,41.4,34.5,93,60,24,30.28,30.12,2,0,9,0.00
2013-5-29,62.0,57.4,52.0,60.8,54.8,44.9,99,92,61,30.14,29.98,2,0,5,0.17
2013-5-30,86.1,72.2,59.3,69.9,62.6,59.0,99,76,43,30.08,29.99,5,0,10,0.00
2013-5-31,92.3,81.6,63.5,71.4,63.7,53.0,99,58,31,30.10,29.91,4,0,9,0.00
2013-6-1,92.7,78.2,64.0,69.3,64.4,56.4,96,67,31,29.95,29.80,5,0,9,0.00
2013-6-2,89.7,73.6,66.3,70.1,67.3,63.7,99,83,49,29.83,29.63,7,0,16,1.14
2013-6-3,78.1,66.8,54.4,67.1,57.4,45.0,100,75,35,29.85,29.76,4,1,14,0.01
2013-6-4,68.1,58.1,48.3,45.9,41.4,36.8,76,55,36,30.11,29.85,6,1,14,0.00
2013-6-5,75.3,60.4,45.4,49.3,42.6,33.3,95,58,24,30.21,30.07,6,0,7,0.00
2013-6-6,73.0,61.7,48.6,55.2,47.5,41.8,94,62,38,30.20,30.06,3,0,5,0.04
2013-6-7,56.6,52.1,50.4,55.2,50.9,49.0,98,96,92,30.09,29.89,3,0,7,0.90
2013-6-8,69.9,59.9,51.3,61.2,55.9,50.5,99,88,64,30.02,29.74,5,1,10,0.27
2013-6-9,76.0,65.2,56.9,60.3,54.5,47.1,99,72,39,30.18,30.02,5,0,10,0.00
2013-6-10,69.8,63.0,52.6,62.4,58.3,51.8,97,85,64,30.22,29.99,2,0,5,0.25
2013-6-11,59.2,56.2,53.9,56.8,55.0,53.1,99,96,83,29.99,29.59,4,0,6,0.74
2013-6-12,65.8,58.7,53.2,55.1,52.6,49.5,99,82,57,29.85,29.59,7,2,20,0.07
2013-6-13,60.9,54.2,48.9,57.2,52.6,48.0,99,95,78,29.84,29.73,2,0,4,0.34
2013-6-14,75.4,62.6,53.1,59.0,53.2,44.4,99,76,34,29.82,29.70,5,0,12,0.03
2013-6-15,76.3,63.1,49.1,53.4,45.5,35.8,92,58,25,29.95,29.82,5,1,12,0.00
2013-6-16,72.8,60.1,49.4,60.8,54.4,47.3,96,83,53,29.94,29.71,2,0,4,0.02
2013-6-17,82.0,64.9,56.7,64.1,59.7,53.3,99,86,39,29.90,29.78,9,0,13,0.47
2013-6-18,62.4,57.2,54.2,62.0,56.6,53.8,99,98,93,30.01,29.90,4,0,12,0.22
2013-6-19,72.5,59.1,49.4,53.8,47.4,37.0,99,71,28,30.19,29.97,5,1,12,0.00
2013-6-20,79.4,61.8,44.2,54.1,46.4,33.4,96,63,22,30.29,30.18,3,0,6,0.00
2013-6-21,84.5,67.5,50.7,58.8,51.9,47.6,93,62,29,30.26,30.19,3,0,5,0.00
2013-6-22,83.4,69.2,54.8,67.2,60.4,53.1,94,75,48,30.22,30.07,3,0,12,0.01
2013-6-23,87.2,72.0,63.4,74.7,67.4,61.6,97,86,57,30.12,29.92,4,0,9,0.11
2013-6-24,91.0,76.2,68.6,72.6,68.6,65.2,98,80,48,30.00,29.89,4,0,7,0.01
2013-6-25,89.5,74.6,66.1,72.2,66.8,63.2,99,80,43,29.95,29.73,4,0,10,0.42
2013-6-26,72.5,67.8,64.5,71.9,67.3,64.2,99,98,94,29.84,29.73,2,0,5,0.30
2013-6-27,80.7,69.2,63.2,72.8,66.7,62.9,100,92,73,29.83,29.72,3,0,10,0.05
2013-6-28,78.8,66.2,57.5,69.0,63.4,56.7,99,91,70,29.72,29.44,5,1,15,1.40
2013-6-29,83.6,72.3,65.6,71.5,66.2,62.4,99,83,54,29.68,29.48,2,0,6,0.01
2013-6-30,83.6,71.3,66.0,71.7,67.0,63.9,99,88,58,29.91,29.68,2,0,5,1.33
2013-7-1,77.0,70.4,66.8,72.5,69.5,66.5,99,97,83,30.04,29.91,2,0,6,0.68
2013-7-2,83.4,70.4,63.2,75.7,68.4,62.0,100,94,67,30.18,30.02,5,0,14,1.19
2013-7-3,86.3,72.4,62.7,75.7,68.8,62.4,99,90,61,30.19,30.09,2,0,7,0.11
2013-7-4,90.7,79.3,69.4,75.9,71.9,68.8,99,80,55,30.19,30.05,2,0,5,0.00
2013-7-5,91.6,79.2,70.1,75.5,71.4,66.0,99,80,47,30.14,30.01,3,0,6,0.20
2013-7-6,85.7,75.5,69.8,75.2,70.0,64.2,99,85,51,30.08,29.98,3,0,7,0.01
2013-7-7,88.8,75.3,65.6,73.0,68.8,64.4,97,82,54,30.03,29.88,3,0,6,0.12
2013-7-8,84.0,74.1,69.9,75.0,70.6,67.7,99,89,66,30.04,29.91,2,0,5,0.09
2013-7-9,83.0,73.4,67.3,70.2,66.4,63.4,93,80,61,30.09,30.01,2,0,7,0.00
2013-7-10,82.4,74.4,69.6,73.2,70.9,66.0,99,90,67,29.95,29.77,2,0,5,0.20
2013-7-11,82.0,74.5,71.5,74.3,69.0,57.8,99,85,56,29.92,29.74,4,0,9,0.00
2013-7-12,82.6,74.5,63.1,64.0,60.3,56.1,85,63,42,30.21,30.10,3,0,7,0.00
2013-7-13,77.6,68.8,60.2,68.9,63.6,58.5,96,84,58,30.32,30.20,1,0,4,0.00
2013-7-14,85.7,74.6,66.6,73.0,69.2,65.9,99,84,60,30.32,30.21,1,0,6,0.02
2013-7-15,91.4,78.1,66.8,72.8,67.5,63.4,98,73,42,30.23,30.10,1,0,8,0.00
2013-7-16,90.3,77.9,65.3,71.8,66.6,62.9,96,71,42,30.19,30.13,4,0,10,0.00
2013-7-17,93.8,79.4,65.0,75.0,68.3,63.8,97,72,38,30.19,29.95,3,0,7,0.00
2013-7-18,93.6,79.6,70.9,74.1,70.6,66.1,98,77,42,30.02,29.91,4,0,7,0.22
2013-7-19,93.4,80.2,69.4,77.5,71.1,66.4,99,77,44,29.93,29.67,5,1,14,0.43
2013-7-20,85.7,73.7,66.9,73.5,69.0,65.3,99,87,54,29.81,29.65,5,0,14,0.07
2013-7-21,82.8,70.8,62.1,67.5,63.0,55.7,98,79,42,30.00,29.81,2,0,6,0.01
2013-7-22,79.9,68.0,59.8,70.9,63.1,54.7,97,85,68,30.04,29.87,2,0,6,0.32
2013-7-23,72.8,67.7,64.5,70.3,66.4,63.8,99,96,85,29.87,29.55,2,0,5,1.58
2013-7-24,76.8,67.3,54.1,70.5,60.6,46.4,99,81,54,30.03,29.59,4,1,13,0.00
2013-7-25,71.5,60.8,49.2,60.9,52.4,45.8,91,75,53,30.12,30.02,3,0,6,0.00
2013-7-26,71.8,64.1,59.9,62.8,58.7,55.4,94,83,67,30.09,29.98,2,0,5,0.00
2013-7-27,84.0,68.3,56.5,65.6,60.2,55.9,99,78,42,30.07,29.95,2,0,5,0.00
2013-7-28,79.8,69.7,61.8,68.9,64.9,60.3,96,85,60,30.01,29.93,1,0,4,0.00
2013-7-29,82.4,70.3,62.0,70.0,64.8,58.0,97,84,49,30.07,29.96,2,0,4,0.10
2013-7-30,77.4,66.4,56.0,62.1,57.6,51.9,98,76,44,30.12,30.05,2,0,5,0.01
2013-7-31,82.2,67.8,55.6,62.5,58.9,54.5,98,76,44,30.16,30.02,2,0,7,0.00
2013-8-1,79.8,65.6,57.5,67.4,61.5,56.2,98,88,52,30.04,29.84,3,0,4,0.43
2013-8-2,80.5,69.8,63.2,67.5,60.6,50.6,98,76,38,29.85,29.78,3,0,9,0.01
2013-8-3,78.6,66.4,58.4,64.4,56.9,50.9,97,74,39,29.85,29.77,4,0,13,0.06
2013-8-4,72.7,62.7,54.2,61.6,55.8,50.8,96,79,54,29.93,29.81,3,0,9,0.02
2013-8-5,72.5,60.8,50.1,51.9,45.7,35.0,96,63,26,30.07,29.92,4,1,13,0.01
2013-8-6,79.2,62.1,46.4,55.0,49.7,45.0,96,68,31,30.15,30.07,2,0,5,0.00
2013-8-7,79.6,66.4,55.1,62.2,56.6,52.4,94,73,44,30.18,30.05,2,0,6,0.00
2013-8-8,82.0,72.0,66.3,71.8,65.2,60.2,92,80,60,30.06,29.96,2,0,6,0.03
2013-8-9,70.6,70.6,70.6,69.7,69.7,69.7,97,97,97,29.90,29.90,0,0,0,0.04
2013-8-17,54.5,54.5,54.5,53.1,53.1,53.1,95,95,95,30.24,30.24,0,0,0,0.00
2013-8-19,81.2,72.7,59.3,64.5,61.2,54.6,98,69,41,30.06,29.95,3,0,6,0.00
2013-8-20,84.0,69.7,59.0,66.6,60.8,55.8,98,77,39,30.10,30.00,2,0,6,0.00
2013-8-21,85.5,71.2,59.8,68.8,62.3,58.7,98,76,44,30.17,30.02,2,0,7,0.00
2013-8-22,86.5,72.6,59.9,69.8,63.4,58.6,97,76,42,30.03,29.80,2,0,9,0.03
2013-8-23,76.8,66.7,56.6,66.6,56.3,46.2,97,73,38,30.17,29.84,5,1,12,0.01
2013-8-24,78.3,60.9,46.4,54.8,48.6,39.1,97,69,27,30.35,30.17,2,0,5,0.00
2013-8-25,80.5,62.8,47.6,59.9,52.6,46.1,98,73,39,30.40,30.15,2,0,6,0.00
2013-8-26,74.2,66.9,60.9,68.2,64.1,57.4,98,91,76,30.17,29.88,2,0,6,0.23
2013-8-27,85.1,72.9,66.1,69.6,67.2,63.9,98,84,52,29.90,29.82,2,0,4,0.00
2013-8-28,85.7,71.5,64.5,73.6,67.2,63.2,98,88,53,30.00,29.84,4,0,7,0.34
2013-8-29,73.5,66.5,62.6,66.7,62.7,60.6,99,88,70,30.08,29.95,2,0,7,0.36
2013-8-30,84.0,71.2,62.6,70.1,64.1,60.2,96,80,49,30.03,29.79,2,0,5,0.00
2013-8-31,77.9,71.3,67.3,73.6,69.1,65.9,98,93,83,29.82,29.74,1,0,5,0.05
2013-9-1,83.4,74.6,68.3,71.4,69.1,64.8,98,84,56,29.86,29.78,2,0,5,0.06
2013-9-2,75.6,70.6,66.8,73.6,69.7,66.2,99,97,92,29.83,29.68,3,0,4,0.64
2013-9-3,70.4,65.7,61.2,67.8,62.9,56.1,99,91,71,29.82,29.70,1,0,5,0.01
2013-9-4,77.4,66.9,59.5,60.1,55.9,48.9,93,70,39,29.90,29.81,5,0,12,0.00
2013-9-5,67.1,59.7,46.8,58.4,47.7,35.2,94,67,31,30.18,29.86,4,1,12,0.01
2013-9-6,68.6,53.2,41.3,47.3,42.5,35.3,97,72,31,30.28,30.09,2,0,10,0.00
2013-9-7,65.5,55.9,45.7,58.8,51.5,44.1,96,86,60,30.09,29.85,2,0,4,0.03
2013-9-8,63.9,57.8,45.7,57.9,47.7,38.2,95,72,42,30.12,29.77,6,1,15,0.00
2013-9-9,67.1,53.1,38.9,51.8,45.0,37.6,97,76,46,30.26,30.10,2,0,4,0.00
2013-9-10,69.4,61.6,52.3,67.7,59.7,49.9,98,94,87,30.12,30.00,1,0,4,0.12
2013-9-11,88.4,75.5,67.9,77.0,70.6,65.3,98,86,55,30.06,29.90,6,0,13,0.16
2013-9-12,76.7,68.8,66.0,72.9,67.7,65.4,99,96,83,29.93,29.64,2,0,4,0.58
2013-9-13,66.4,62.1,55.6,66.0,60.0,51.2,99,93,81,29.82,29.61,4,1,13,0.41
2013-9-14,60.7,56.0,51.9,52.4,50.6,48.1,95,83,68,30.07,29.82,3,0,10,0.00
2013-9-15,68.6,56.2,47.1,55.2,50.2,46.3,97,82,55,30.17,30.04,2,0,4,0.00
2013-9-16,61.8,53.4,41.5,54.7,46.8,35.5,96,79,56,30.32,29.99,5,1,12,0.01
2013-9-17,62.3,47.9,34.6,45.9,38.9,32.5,94,73,42,30.48,30.32,3,0,9,0.00
2013-9-18,71.1,53.0,41.6,52.9,46.4,40.0,98,81,46,30.36,30.14,2,0,4,0.00
2013-9-19,73.9,57.1,45.2,55.4,49.1,41.0,98,79,35,30.19,30.04,2,0,4,0.00
2013-9-20,76.1,59.2,48.3,59.4,53.0,47.5,98,82,49,30.14,29.98,2,0,5,0.01
2013-9-21,73.3,62.4,51.6,63.7,56.9,50.5,98,84,51,29.99,29.64,3,1,9,0.04
2013-9-22,66.6,58.9,46.5,64.1,52.7,40.0,97,81,61,29.89,29.57,4,1,12,0.48
2013-9-23,55.1,47.9,41.6,41.5,39.0,35.8,86,72,55,30.05,29.88,7,1,15,0.00
2013-9-24,63.5,53.3,46.4,45.5,40.1,35.0,83,63,36,30.03,29.86,5,1,12,0.00
2013-9-25,66.9,53.8,40.6,51.2,46.1,39.3,97,77,51,30.01,29.89,4,0,11,0.00
2013-9-26,64.0,54.7,46.2,50.5,45.8,42.8,90,73,52,30.17,30.01,5,0,9,0.00
2013-9-27,63.5,54.7,47.9,51.5,49.0,46.3,94,82,60,30.31,30.17,2,0,7,0.00
2013-9-28,71.1,55.3,44.9,55.5,48.8,44.1,98,82,44,30.39,30.27,2,0,8,0.00
2013-9-29,71.1,55.0,45.1,55.2,49.0,44.0,98,82,52,30.29,30.09,1,0,4,0.00
2013-9-30,69.9,53.5,41.3,52.7,47.1,40.0,97,81,46,30.14,29.98,2,0,5,0.00
2013-10-1,73.3,56.2,44.2,60.2,51.1,43.0,98,85,52,30.04,29.87,2,0,5,0.00
2013-10-2,77.0,62.0,50.8,60.2,55.3,50.0,98,81,50,29.97,29.84,4,0,9,0.00
2013-10-3,72.5,59.4,47.0,53.5,49.7,41.9,96,73,35,30.12,29.97,2,0,4,0.00
2013-10-4,61.5,53.8,45.4,55.2,50.7,44.2,97,89,73,30.14,30.06,1,0,4,0.00
2013-10-5,64.3,59.1,55.9,55.7,54.0,51.2,96,84,67,30.13,30.07,1,0,4,0.00
2013-10-6,58.3,52.0,48.5,55.7,48.6,44.0,96,88,73,30.23,30.13,3,0,5,0.39
2013-10-7,72.5,57.1,50.5,67.3,55.9,49.4,99,96,77,30.15,29.69,9,1,15,0.50
2013-10-8,61.6,52.4,40.1,45.9,38.7,31.9,92,63,33,30.42,30.03,4,1,12,0.51
2013-10-9,60.4,45.0,32.8,44.6,38.3,31.5,97,80,44,30.55,30.39,1,0,4,0.00
2013-10-10,58.9,46.7,36.2,49.9,43.1,35.2,97,88,63,30.40,30.22,1,0,4,0.00
2013-10-11,66.8,53.4,45.1,52.6,47.0,44.0,97,81,47,30.22,30.14,2,0,4,0.00
2013-10-12,56.9,49.4,39.2,52.1,46.4,38.2,97,90,82,30.41,30.21,1,0,4,0.00
2013-10-13,62.7,52.3,43.9,48.7,45.5,42.2,96,79,55,30.47,30.37,3,0,6,0.00
2013-10-14,65.0,54.8,45.8,53.4,48.2,43.9,93,80,58,30.40,30.23,3,0,6,0.00
2013-10-15,63.9,58.8,54.4,55.1,52.8,50.9,91,81,67,30.28,30.17,2,0,6,0.00
2013-10-16,61.6,55.8,51.9,51.8,50.3,48.8,92,82,67,30.16,29.89,2,0,4,0.00
2013-10-17,69.4,57.5,49.9,53.6,48.9,45.3,96,76,44,29.89,29.70,3,0,10,0.19
2013-10-18,60.9,53.9,43.5,54.2,47.0,36.7,97,79,52,29.92,29.59,4,1,13,0.23
2013-10-19,63.5,50.6,36.6,47.1,39.9,34.8,95,70,46,29.98,29.71,4,1,10,0.01
2013-10-20,56.9,50.4,42.8,47.6,38.2,31.4,93,65,42,30.03,29.67,5,1,13,0.02
2013-10-21,63.1,47.9,32.4,43.7,37.3,30.9,96,70,42,30.14,29.95,3,0,6,0.00
2013-10-22,55.3,48.4,39.2,48.9,41.1,31.6,89,76,57,29.95,29.74,2,0,6,0.00
2013-10-23,51.0,41.8,32.8,35.8,32.7,28.5,95,72,42,29.81,29.61,3,0,5,0.00
2013-10-24,47.1,41.4,32.5,35.5,30.2,26.8,81,65,48,29.89,29.66,6,1,19,0.00
2013-10-25,46.0,37.8,29.4,32.2,27.7,23.5,90,69,43,30.15,29.89,4,1,12,0.00
2013-10-26,48.8,39.4,26.9,33.5,27.9,23.8,92,67,38,30.16,29.84,4,1,10,0.00
2013-10-27,52.5,43.7,34.3,35.2,30.6,25.3,80,61,40,30.06,29.78,4,0,9,0.00
2013-10-28,53.6,39.2,30.6,35.4,28.6,20.3,89,67,46,30.38,30.06,7,1,18,0.00
2013-10-29,43.8,31.8,21.3,23.8,20.2,17.1,90,65,35,30.50,30.37,4,0,6,0.00
2013-10-30,47.9,35.4,28.5,34.1,27.3,18.7,91,73,56,30.38,30.20,4,0,7,0.00
2013-10-31,56.6,39.7,28.5,56.0,38.5,26.7,98,95,91,30.26,29.72,3,0,6,0.24
2013-11-1,64.2,59.1,52.2,61.0,54.3,41.4,98,85,57,29.70,29.36,8,2,20,0.54
2013-11-2,59.6,49.1,39.5,46.6,41.6,33.5,96,77,50,29.82,29.61,6,0,17,0.00
2013-11-3,41.5,35.4,26.9,33.1,19.2,9.5,74,53,31,30.48,29.83,6,2,14,0.00
2013-11-4,37.6,29.4,21.8,18.7,15.0,10.8,75,56,33,30.73,30.48,4,0,13,0.00
2013-11-5,45.8,33.0,22.5,29.0,23.8,17.4,86,70,48,30.73,30.49,4,0,6,0.00
2013-11-6,58.1,45.7,32.5,43.9,37.0,27.9,90,73,55,30.50,29.97,5,1,10,0.00
2013-11-7,53.6,48.0,36.6,52.5,43.4,25.6,96,84,64,29.97,29.71,5,1,13,0.21
2013-11-8,42.2,35.6,28.4,30.2,23.6,20.5,83,62,48,30.09,29.84,5,1,12,0.00
2013-11-9,42.3,36.9,29.8,27.8,22.3,18.5,70,56,40,30.21,29.99,4,0,9,0.00
2013-11-10,45.2,39.0,33.5,38.9,34.0,27.2,94,82,66,29.99,29.74,4,0,12,0.06
2013-11-11,47.3,40.6,35.3,32.9,26.6,21.5,72,58,36,30.09,29.86,4,1,13,0.00
2013-11-12,43.1,31.0,25.6,35.0,19.4,13.0,89,63,46,30.23,29.86,6,1,13,0.02
2013-11-13,30.9,26.0,19.5,17.7,11.5,6.0,73,55,36,30.33,30.11,4,1,12,0.00
2013-11-14,44.6,35.5,27.8,27.4,21.9,16.2,78,58,46,30.10,30.05,4,0,7,0.00
2013-11-15,50.2,36.5,26.1,25.0,21.9,17.3,81,59,28,30.20,30.10,2,0,4,0.00
2013-11-16,56.3,40.2,30.3,30.5,26.9,22.8,79,61,31,30.33,30.19,2,0,4,0.00
2013-11-17,50.7,39.7,29.0,48.5,36.6,25.2,95,89,75,30.31,29.79,4,1,7,0.05
2013-11-18,60.1,52.7,43.5,57.5,43.0,28.0,95,71,42,29.79,29.45,6,2,13,0.21
2013-11-19,43.6,34.6,28.7,30.1,18.7,12.7,81,52,42,30.34,29.65,8,2,17,0.00
2013-11-20,35.6,28.0,21.8,16.1,14.1,10.5,77,57,35,30.66,30.34,5,0,10,0.00
2013-11-21,40.9,29.0,16.7,23.6,16.6,10.7,86,63,29,30.68,30.37,3,0,5,0.00
2013-11-22,38.9,35.7,32.4,37.8,32.6,22.7,96,89,63,30.37,29.82,0,0,1,0.20
2013-11-23,42.6,34.5,24.5,41.0,21.8,6.9,97,61,38,29.96,29.78,7,2,17,0.01
2013-11-24,24.5,19.0,14.8,17.5,1.7,-6.5,85,49,28,30.23,29.81,9,3,20,0.00
2013-11-25,28.8,20.6,10.2,12.6,1.5,-8.4,56,43,26,30.41,30.21,4,1,14,0.00
2013-11-26,34.3,30.3,26.6,30.3,22.6,11.2,94,74,48,30.31,30.04,3,0,7,0.04
2013-11-27,41.2,36.4,31.8,40.3,35.7,28.9,100,97,86,30.04,29.29,7,1,12,1.54
2013-11-28,33.4,24.4,15.1,29.1,10.9,2.4,85,57,37,30.44,29.48,9,2,17,0.00
2013-11-29,26.9,17.2,10.0,10.9,6.1,-2.4,85,64,28,30.78,30.44,4,0,7,0.00
2013-11-30,27.0,17.7,5.4,12.5,6.7,0.8,83,64,41,30.85,30.41,4,0,5,0.00
2013-12-1,38.0,31.4,26.6,29.6,23.9,12.5,86,74,54,30.41,30.05,2,0,5,0.00
2013-12-2,37.6,33.5,30.1,32.6,30.2,27.5,93,88,81,30.05,29.92,1,0,4,0.00
2013-12-3,36.2,32.3,29.0,32.8,30.3,27.2,95,93,85,29.98,29.90,3,0,6,0.00
2013-12-4,39.3,32.1,27.2,29.1,25.2,22.4,95,77,55,30.21,29.98,4,0,7,0.00
2013-12-5,41.2,34.2,26.3,40.3,31.5,22.8,97,90,77,30.21,29.90,2,0,4,0.05
2013-12-6,43.8,39.8,32.2,43.3,34.1,23.3,99,81,47,30.16,29.86,4,0,10,0.25
2013-12-7,33.5,29.9,24.2,30.1,22.0,13.9,94,74,49,30.45,30.10,5,0,12,0.03
2013-12-8,27.2,25.4,22.7,15.1,13.2,10.1,69,60,51,30.59,30.45,3,0,6,0.00
2013-12-9,29.7,26.6,22.5,28.2,22.1,9.3,94,84,51,30.49,29.88,4,0,6,0.00
2013-12-10,33.8,28.7,20.2,28.5,20.1,6.8,95,71,43,29.97,29.80,4,0,13,0.01
2013-12-11,29.3,23.5,18.4,17.5,11.7,5.5,85,62,37,30.16,29.97,5,1,12,0.00
2013-12-12,20.2,16.0,13.5,13.2,1.8,-8.3,85,55,29,30.29,30.01,4,1,10,0.00
2013-12-13,22.9,15.3,4.3,15.3,5.7,-6.3,80,65,50,30.45,29.94,6,1,13,0.00
2013-12-14,12.1,5.5,0.1,8.2,-4.6,-10.5,84,63,46,30.66,30.20,3,0,6,0.00
2013-12-15,24.8,19.8,12.1,21.7,16.3,8.2,89,86,80,30.21,29.52,4,0,9,0.00
2013-12-16,22.9,17.5,5.2,16.2,5.9,-5.5,88,61,38,30.23,29.71,6,1,12,0.00
2013-12-17,8.6,1.3,-8.2,4.0,-5.3,-14.8,82,73,62,30.32,30.05,2,0,4,0.00
2013-12-18,26.3,17.0,8.3,20.0,12.0,3.7,86,80,69,30.06,29.93,2,0,4,0.00
2013-12-19,36.2,30.3,23.8,28.7,22.6,19.4,85,73,60,30.07,29.93,4,0,12,0.02
2013-12-20,38.2,34.5,31.3,33.5,29.5,26.3,91,82,68,30.08,29.90,2,0,4,0.24
2013-12-21,44.8,39.5,35.5,40.4,35.7,31.5,96,86,76,29.92,29.83,2,0,7,0.34
2013-12-22,43.5,38.3,35.5,43.0,37.2,33.8,100,95,92,29.97,29.67,5,2,12,0.04
2013-12-23,36.2,34.6,32.2,35.4,33.2,25.5,97,95,78,30.15,29.96,4,0,7,0.25
2013-12-24,32.5,26.0,17.2,25.5,14.3,4.4,78,61,50,30.25,30.08,4,1,12,0.00
2013-12-25,17.2,13.0,6.0,7.4,1.0,-3.7,78,59,42,30.55,30.25,4,1,10,0.00
2013-12-26,26.6,21.6,16.7,22.6,15.0,4.3,90,76,54,30.47,30.10,2,0,4,0.00
2013-12-27,31.0,26.1,19.2,21.6,19.2,15.8,91,76,53,30.25,30.18,4,0,7,0.00
2013-12-28,39.2,31.4,24.2,30.1,24.0,18.8,81,74,64,30.18,29.97,4,0,7,0.04
2013-12-29,34.8,31.4,28.1,31.2,28.3,25.6,95,89,78,30.00,29.59,0,0,1,0.00
2013-12-30,10.2,8.9,7.6,2.4,1.3,0.2,71,71,70,30.21,30.20,2,0,5,0.00
2013-12-31,17.2,8.2,0.7,12.2,0.9,-6.7,86,72,51,30.21,30.05,2,0,5,0.00
2014-1-1,19.4,14.2,9.0,9.5,5.5,3.1,79,69,55,30.36,30.16,3,0,7,0.00
2014-1-2,18.1,18.1,18.1,5.8,5.8,5.8,58,58,58,30.36,30.36,1,1,1,0.00